Volver al catálogo

SBS 1

ActivoComunicacionesGEO
NORAD 12065·PAYLOAD·🇺🇸 United States

Lanzado Nov 15, 1980 desde Cape Canaveral Space Force Station

Loading…

TLE

ActualizadoSource: Space-Track

Época: Sep 13, 2026, 17:34 UTC

1 12065U 80091A   26256.73210786  .00000066  00000-0  00000-0 0  9999
2 12065   9.8458 317.2229 0008833 205.8091 155.5968  0.99814212 47368

Sigue SBS 1 en tiempo real con AllMySat

Download on the App Store